Year,Month,Day,Hour,Minute,Value (Times are PST for temperature in C)
2010,11,02,00,00,9.50
2010,11,02,00,01,9.50
2010,11,02,00,02,9.50
2010,11,02,00,03,9.50
2010,11,02,00,04,9.40
2010,11,02,00,05,9.50
2010,11,02,00,06,9.50
2010,11,02,00,07,9.50
2010,11,02,00,08,9.50
2010,11,02,00,09,9.50
2010,11,02,00,10,9.50
2010,11,02,00,11,9.50
2010,11,02,00,12,9.50
2010,11,02,00,13,9.50
2010,11,02,00,14,9.50
2010,11,02,00,15,9.40
2010,11,02,00,16,9.40
2010,11,02,00,17,9.50
2010,11,02,00,18,9.50
2010,11,02,00,19,9.50
2010,11,02,00,20,9.40
2010,11,02,00,21,9.40
2010,11,02,00,22,9.40
2010,11,02,00,23,9.40
2010,11,02,00,24,9.40
2010,11,02,00,25,9.40
2010,11,02,00,26,9.40
2010,11,02,00,27,9.40
2010,11,02,00,28,9.40
2010,11,02,00,29,9.40
2010,11,02,00,30,9.40
2010,11,02,00,31,9.40
2010,11,02,00,32,9.40
2010,11,02,00,33,9.30
2010,11,02,00,34,9.30
2010,11,02,00,35,9.30
2010,11,02,00,36,9.30
2010,11,02,00,37,9.30
2010,11,02,00,38,9.30
2010,11,02,00,39,9.20
2010,11,02,00,40,9.20
2010,11,02,00,41,9.20
2010,11,02,00,42,9.20
2010,11,02,00,43,9.20
2010,11,02,00,44,9.20
2010,11,02,00,45,9.20
2010,11,02,00,46,9.20
2010,11,02,00,47,9.20
2010,11,02,00,48,9.20
2010,11,02,00,49,9.20
2010,11,02,00,50,9.20
2010,11,02,00,51,9.20
2010,11,02,00,52,9.20
2010,11,02,00,53,9.20
2010,11,02,00,54,9.20
2010,11,02,00,55,9.20
2010,11,02,00,56,9.20
2010,11,02,00,57,9.20
2010,11,02,00,58,9.20
2010,11,02,00,59,9.10
2010,11,02,01,00,9.10
2010,11,02,01,01,9.10
2010,11,02,01,02,9.10
2010,11,02,01,03,9.10
2010,11,02,01,04,9.10
2010,11,02,01,05,9.10
2010,11,02,01,06,9.10
2010,11,02,01,07,9.10
2010,11,02,01,08,9.10
2010,11,02,01,09,9.10
2010,11,02,01,10,9.10
2010,11,02,01,11,9.10
2010,11,02,01,12,9.00
2010,11,02,01,13,9.00
2010,11,02,01,14,8.90
2010,11,02,01,15,8.90
2010,11,02,01,16,8.80
2010,11,02,01,17,8.80
2010,11,02,01,18,8.80
2010,11,02,01,19,8.70
2010,11,02,01,20,8.70
2010,11,02,01,21,8.70
2010,11,02,01,22,8.70
2010,11,02,01,23,8.70
2010,11,02,01,24,8.70
2010,11,02,01,25,8.70
2010,11,02,01,26,8.70
2010,11,02,01,27,8.70
2010,11,02,01,28,8.70
2010,11,02,01,29,8.60
2010,11,02,01,30,8.60
2010,11,02,01,31,8.60
2010,11,02,01,32,8.60
2010,11,02,01,33,8.50
2010,11,02,01,34,8.50
2010,11,02,01,35,8.50
2010,11,02,01,36,8.40
2010,11,02,01,37,8.40
2010,11,02,01,38,8.40
2010,11,02,01,39,8.40
2010,11,02,01,40,8.40
2010,11,02,01,41,8.40
2010,11,02,01,42,8.40
2010,11,02,01,43,8.40
2010,11,02,01,44,8.40
2010,11,02,01,45,8.30
2010,11,02,01,46,8.30
2010,11,02,01,47,8.30
2010,11,02,01,48,8.30
2010,11,02,01,49,8.30
2010,11,02,01,50,8.30
2010,11,02,01,51,8.30
2010,11,02,01,52,8.20
2010,11,02,01,53,8.20
2010,11,02,01,54,8.20
2010,11,02,01,55,8.20
2010,11,02,01,56,8.20
2010,11,02,01,57,8.20
2010,11,02,01,58,8.20
2010,11,02,01,59,8.20
2010,11,02,02,00,8.10
2010,11,02,02,01,8.10
2010,11,02,02,02,8.10
2010,11,02,02,03,8.10
2010,11,02,02,04,8.10
2010,11,02,02,05,8.10
2010,11,02,02,06,8.10
2010,11,02,02,07,8.10
2010,11,02,02,08,8.00
2010,11,02,02,09,8.10
2010,11,02,02,10,8.10
2010,11,02,02,11,8.10
2010,11,02,02,12,8.00
2010,11,02,02,13,8.00
2010,11,02,02,14,8.00
2010,11,02,02,15,8.00
2010,11,02,02,16,7.90
2010,11,02,02,17,7.90
2010,11,02,02,18,7.90
2010,11,02,02,19,7.90
2010,11,02,02,20,7.80
2010,11,02,02,21,7.80
2010,11,02,02,22,7.80
2010,11,02,02,23,7.80
2010,11,02,02,24,7.80
2010,11,02,02,25,7.80
2010,11,02,02,26,7.80
2010,11,02,02,27,7.80
2010,11,02,02,28,7.90
2010,11,02,02,29,7.90
2010,11,02,02,30,7.90
2010,11,02,02,31,7.90
2010,11,02,02,32,8.00
2010,11,02,02,33,8.00
2010,11,02,02,34,8.00
2010,11,02,02,35,8.10
2010,11,02,02,36,8.10
2010,11,02,02,37,8.10
2010,11,02,02,38,8.10
2010,11,02,02,39,8.10
2010,11,02,02,40,8.10
2010,11,02,02,41,8.10
2010,11,02,02,42,8.10
2010,11,02,02,43,8.10
2010,11,02,02,44,8.10
2010,11,02,02,45,8.10
2010,11,02,02,46,8.10
2010,11,02,02,47,8.10
2010,11,02,02,48,8.10
2010,11,02,02,49,8.10
2010,11,02,02,50,8.10
2010,11,02,02,51,8.10
2010,11,02,02,52,8.10
2010,11,02,02,53,8.10
2010,11,02,02,54,8.10
2010,11,02,02,55,8.10
2010,11,02,02,56,8.10
2010,11,02,02,57,8.10
2010,11,02,02,58,8.10
2010,11,02,02,59,8.10
2010,11,02,03,00,8.10
2010,11,02,03,01,8.10
2010,11,02,03,02,8.10
2010,11,02,03,03,8.10
2010,11,02,03,04,8.10
2010,11,02,03,05,8.10
2010,11,02,03,06,8.10
2010,11,02,03,07,8.10
2010,11,02,03,08,8.10
2010,11,02,03,09,8.20
2010,11,02,03,10,8.20
2010,11,02,03,11,8.20
2010,11,02,03,12,8.20
2010,11,02,03,13,8.20
2010,11,02,03,14,8.20
2010,11,02,03,15,8.20
2010,11,02,03,16,8.20
2010,11,02,03,17,8.20
2010,11,02,03,18,8.20
2010,11,02,03,19,8.20
2010,11,02,03,20,8.20
2010,11,02,03,21,8.20
2010,11,02,03,22,8.20
2010,11,02,03,23,8.20
2010,11,02,03,24,8.20
2010,11,02,03,25,8.20
2010,11,02,03,26,8.20
2010,11,02,03,27,8.20
2010,11,02,03,28,8.20
2010,11,02,03,29,8.10
2010,11,02,03,30,8.10
2010,11,02,03,31,8.10
2010,11,02,03,32,8.10
2010,11,02,03,33,8.10
2010,11,02,03,34,8.10
2010,11,02,03,35,8.10
2010,11,02,03,36,8.10
2010,11,02,03,37,8.00
2010,11,02,03,38,8.00
2010,11,02,03,39,8.00
2010,11,02,03,40,7.90
2010,11,02,03,41,7.90
2010,11,02,03,42,7.80
2010,11,02,03,43,7.80
2010,11,02,03,44,7.80
2010,11,02,03,45,7.70
2010,11,02,03,46,7.70
2010,11,02,03,47,7.70
2010,11,02,03,48,7.60
2010,11,02,03,49,7.60
2010,11,02,03,50,7.60
2010,11,02,03,51,7.50
2010,11,02,03,52,7.50
2010,11,02,03,53,7.50
2010,11,02,03,54,7.50
2010,11,02,03,55,7.40
2010,11,02,03,56,7.40
2010,11,02,03,57,7.40
2010,11,02,03,58,7.30
2010,11,02,03,59,7.30
2010,11,02,04,00,7.30
2010,11,02,04,01,7.30
2010,11,02,04,02,7.20
2010,11,02,04,03,7.20
2010,11,02,04,04,7.10
2010,11,02,04,05,7.10
2010,11,02,04,06,7.10
2010,11,02,04,07,7.10
2010,11,02,04,08,7.00
2010,11,02,04,09,7.00
2010,11,02,04,10,6.90
2010,11,02,04,11,6.90
2010,11,02,04,12,6.90
2010,11,02,04,13,6.90
2010,11,02,04,14,6.80
2010,11,02,04,15,6.80
2010,11,02,04,16,6.80
2010,11,02,04,17,6.80
2010,11,02,04,18,6.80
2010,11,02,04,19,6.80
2010,11,02,04,20,6.80
2010,11,02,04,21,6.80
2010,11,02,04,22,6.80
2010,11,02,04,23,6.80
2010,11,02,04,24,6.80
2010,11,02,04,25,6.90
2010,11,02,04,26,7.00
2010,11,02,04,27,7.00
2010,11,02,04,28,7.10
2010,11,02,04,29,7.10
2010,11,02,04,30,7.10
2010,11,02,04,31,7.20
2010,11,02,04,32,7.20
2010,11,02,04,33,7.20
2010,11,02,04,34,7.20
2010,11,02,04,35,7.20
2010,11,02,04,36,7.20
2010,11,02,04,37,7.20
2010,11,02,04,38,7.20
2010,11,02,04,39,7.30
2010,11,02,04,40,7.30
2010,11,02,04,41,7.30
2010,11,02,04,42,7.30
2010,11,02,04,43,7.30
2010,11,02,04,44,7.30
2010,11,02,04,45,7.30
2010,11,02,04,46,7.30
2010,11,02,04,47,7.30
2010,11,02,04,48,7.30
2010,11,02,04,49,7.30
2010,11,02,04,50,7.20
2010,11,02,04,51,7.20
2010,11,02,04,52,7.20
2010,11,02,04,53,7.20
2010,11,02,04,54,7.20
2010,11,02,04,55,7.20
2010,11,02,04,56,7.20
2010,11,02,04,57,7.20
2010,11,02,04,58,7.20
2010,11,02,04,59,7.20
2010,11,02,05,00,7.20
2010,11,02,05,01,7.10
2010,11,02,05,02,7.10
2010,11,02,05,03,7.10
2010,11,02,05,04,7.10
2010,11,02,05,05,7.10
2010,11,02,05,06,7.10
2010,11,02,05,07,7.10
2010,11,02,05,08,7.10
2010,11,02,05,09,7.10
2010,11,02,05,10,7.10
2010,11,02,05,11,7.10
2010,11,02,05,12,7.10
2010,11,02,05,13,7.10
2010,11,02,05,14,7.10
2010,11,02,05,15,7.10
2010,11,02,05,16,7.10
2010,11,02,05,17,7.10
2010,11,02,05,18,7.10
2010,11,02,05,19,7.10
2010,11,02,05,20,7.10
2010,11,02,05,21,7.10
2010,11,02,05,22,7.10
2010,11,02,05,23,7.10
2010,11,02,05,24,7.10
2010,11,02,05,25,7.10
2010,11,02,05,26,7.10
2010,11,02,05,27,7.10
2010,11,02,05,28,7.10
2010,11,02,05,29,7.10
2010,11,02,05,30,7.10
2010,11,02,05,31,7.10
2010,11,02,05,32,7.10
2010,11,02,05,33,7.10
2010,11,02,05,34,7.00
2010,11,02,05,35,7.00
2010,11,02,05,36,7.00
2010,11,02,05,37,6.90
2010,11,02,05,38,6.90
2010,11,02,05,39,6.90
2010,11,02,05,40,6.90
2010,11,02,05,41,6.80
2010,11,02,05,42,6.80
2010,11,02,05,43,6.80
2010,11,02,05,44,6.80
2010,11,02,05,45,6.80
2010,11,02,05,46,6.80
2010,11,02,05,47,6.80
2010,11,02,05,48,6.80
2010,11,02,05,49,6.70
2010,11,02,05,50,6.70
2010,11,02,05,51,6.70
2010,11,02,05,52,6.70
2010,11,02,05,53,6.70
2010,11,02,05,54,6.70
2010,11,02,05,55,6.70
2010,11,02,05,56,6.70
2010,11,02,05,57,6.70
2010,11,02,05,58,6.70
2010,11,02,05,59,6.70
2010,11,02,06,00,6.70
2010,11,02,06,01,6.70
2010,11,02,06,02,6.70
2010,11,02,06,03,6.70
2010,11,02,06,04,6.70
2010,11,02,06,05,6.60
2010,11,02,06,06,6.60
2010,11,02,06,07,6.60
2010,11,02,06,08,6.60
2010,11,02,06,09,6.50
2010,11,02,06,10,6.50
2010,11,02,06,11,6.50
2010,11,02,06,12,6.40
2010,11,02,06,13,6.40
2010,11,02,06,14,6.40
2010,11,02,06,15,6.40
2010,11,02,06,16,6.40
2010,11,02,06,17,6.40
2010,11,02,06,18,6.40
2010,11,02,06,19,6.40
2010,11,02,06,20,6.40
2010,11,02,06,21,6.40
2010,11,02,06,22,6.40
2010,11,02,06,23,6.40
2010,11,02,06,24,6.40
2010,11,02,06,25,6.40
2010,11,02,06,26,6.40
2010,11,02,06,27,6.40
2010,11,02,06,28,6.40
2010,11,02,06,29,6.30
2010,11,02,06,30,6.30
2010,11,02,06,31,6.30
2010,11,02,06,32,6.30
2010,11,02,06,33,6.30
2010,11,02,06,34,6.30
2010,11,02,06,35,6.30
2010,11,02,06,36,6.30
2010,11,02,06,37,6.30
2010,11,02,06,38,6.30
2010,11,02,06,39,6.30
2010,11,02,06,40,6.30
2010,11,02,06,41,6.30
2010,11,02,06,42,6.30
2010,11,02,06,43,6.30
2010,11,02,06,44,6.30
2010,11,02,06,45,6.30
2010,11,02,06,46,6.30
2010,11,02,06,47,6.30
2010,11,02,06,48,6.30
2010,11,02,06,49,6.30
2010,11,02,06,50,6.30
2010,11,02,06,51,6.30
2010,11,02,06,52,6.30
2010,11,02,06,53,6.30
2010,11,02,06,54,6.40
2010,11,02,06,55,6.40
2010,11,02,06,56,6.40
2010,11,02,06,57,6.30
2010,11,02,06,58,6.30
2010,11,02,06,59,6.30
2010,11,02,07,00,6.30
2010,11,02,07,01,6.30
2010,11,02,07,02,6.20
2010,11,02,07,03,6.20
2010,11,02,07,04,6.20
2010,11,02,07,05,6.20
2010,11,02,07,06,6.20
2010,11,02,07,07,6.20
2010,11,02,07,08,6.20
2010,11,02,07,09,6.20
2010,11,02,07,10,6.20
2010,11,02,07,11,6.20
2010,11,02,07,12,6.20
2010,11,02,07,13,6.10
2010,11,02,07,14,6.10
2010,11,02,07,15,6.10
2010,11,02,07,16,6.10
2010,11,02,07,17,6.10
2010,11,02,07,18,6.20
2010,11,02,07,19,6.20
2010,11,02,07,20,6.20
2010,11,02,07,21,6.20
2010,11,02,07,22,6.20
2010,11,02,07,23,6.20
2010,11,02,07,24,6.20
2010,11,02,07,25,6.20
2010,11,02,07,26,6.20
2010,11,02,07,27,6.20
2010,11,02,07,28,6.20
2010,11,02,07,29,6.20
2010,11,02,07,30,6.20
2010,11,02,07,31,6.20
2010,11,02,07,32,6.20
2010,11,02,07,33,6.20
2010,11,02,07,34,6.20
2010,11,02,07,35,6.20
2010,11,02,07,36,6.20
2010,11,02,07,37,6.20
2010,11,02,07,38,6.20
2010,11,02,07,39,6.20
2010,11,02,07,40,6.20
2010,11,02,07,41,6.20
2010,11,02,07,42,6.20
2010,11,02,07,43,6.20
2010,11,02,07,44,6.20
2010,11,02,07,45,6.20
2010,11,02,07,46,6.20
2010,11,02,07,47,6.20
2010,11,02,07,48,6.20
2010,11,02,07,49,6.20
2010,11,02,07,50,6.20
2010,11,02,07,51,6.20
2010,11,02,07,52,6.20
2010,11,02,07,53,6.20
2010,11,02,07,54,6.20
2010,11,02,07,55,6.20
2010,11,02,07,56,6.20
2010,11,02,07,57,6.30
2010,11,02,07,58,6.30
2010,11,02,07,59,6.30
2010,11,02,08,00,6.30
2010,11,02,08,01,6.30
2010,11,02,08,02,6.30
2010,11,02,08,03,6.30
2010,11,02,08,04,6.30
2010,11,02,08,05,6.40
2010,11,02,08,06,6.40
2010,11,02,08,07,6.40
2010,11,02,08,08,6.40
2010,11,02,08,09,6.40
2010,11,02,08,10,6.40
2010,11,02,08,11,6.50
2010,11,02,08,12,6.50
2010,11,02,08,13,6.50
2010,11,02,08,14,6.50
2010,11,02,08,15,6.50
2010,11,02,08,16,6.50
2010,11,02,08,17,6.50
2010,11,02,08,18,6.50
2010,11,02,08,19,6.50
2010,11,02,08,20,6.60
2010,11,02,08,21,6.60
2010,11,02,08,22,6.60
2010,11,02,08,23,6.60
2010,11,02,08,24,6.60
2010,11,02,08,25,6.70
2010,11,02,08,26,6.70
2010,11,02,08,27,6.70
2010,11,02,08,28,6.70
2010,11,02,08,29,6.70
2010,11,02,08,30,6.70
2010,11,02,08,31,6.80
2010,11,02,08,32,6.80
2010,11,02,08,33,6.80
2010,11,02,08,34,6.80
2010,11,02,08,35,6.80
2010,11,02,08,36,6.80
2010,11,02,08,37,6.80
2010,11,02,08,38,6.80
2010,11,02,08,39,6.80
2010,11,02,08,40,6.80
2010,11,02,08,41,6.80
2010,11,02,08,42,6.70
2010,11,02,08,43,6.70
2010,11,02,08,44,6.70
2010,11,02,08,45,6.70
2010,11,02,08,46,6.70
2010,11,02,08,47,6.70
2010,11,02,08,48,6.70
2010,11,02,08,49,6.70
2010,11,02,08,50,6.70
2010,11,02,08,51,6.70
2010,11,02,08,52,6.80
2010,11,02,08,53,6.80
2010,11,02,08,54,6.80
2010,11,02,08,55,6.80
2010,11,02,08,56,6.80
2010,11,02,08,57,6.80
2010,11,02,08,58,6.80
2010,11,02,08,59,6.90
2010,11,02,09,00,6.90
2010,11,02,09,01,6.90
2010,11,02,09,02,7.00
2010,11,02,09,03,7.00
2010,11,02,09,04,7.10
2010,11,02,09,05,7.10
2010,11,02,09,06,7.10
2010,11,02,09,07,7.00
2010,11,02,09,08,7.00
2010,11,02,09,09,7.00
2010,11,02,09,10,6.90
2010,11,02,09,11,6.90
2010,11,02,09,12,6.90
2010,11,02,09,13,7.00
2010,11,02,09,14,7.00
2010,11,02,09,15,7.10
2010,11,02,09,16,7.10
2010,11,02,09,17,7.10
2010,11,02,09,18,7.20
2010,11,02,09,19,7.20
2010,11,02,09,20,7.20
2010,11,02,09,21,7.20
2010,11,02,09,22,7.20
2010,11,02,09,23,7.30
2010,11,02,09,24,7.30
2010,11,02,09,25,7.30
2010,11,02,09,26,7.30
2010,11,02,09,27,7.40
2010,11,02,09,28,7.40
2010,11,02,09,29,7.40
2010,11,02,09,30,7.50
2010,11,02,09,31,7.50
2010,11,02,09,32,7.60
2010,11,02,09,33,7.60
2010,11,02,09,34,7.60
2010,11,02,09,35,7.70
2010,11,02,09,36,7.70
2010,11,02,09,37,7.70
2010,11,02,09,38,7.80
2010,11,02,09,39,7.80
2010,11,02,09,40,7.80
2010,11,02,09,41,7.90
2010,11,02,09,42,7.90
2010,11,02,09,43,8.00
2010,11,02,09,44,8.00
2010,11,02,09,45,8.10
2010,11,02,09,46,8.10
2010,11,02,09,47,8.10
2010,11,02,09,48,8.20
2010,11,02,09,49,8.20
2010,11,02,09,50,8.20
2010,11,02,09,51,8.30
2010,11,02,09,52,8.30
2010,11,02,09,53,8.30
2010,11,02,09,54,8.40
2010,11,02,09,55,8.40
2010,11,02,09,56,8.40
2010,11,02,09,57,8.40
2010,11,02,09,58,8.40
2010,11,02,09,59,8.50
2010,11,02,10,00,8.50
2010,11,02,10,01,8.50
2010,11,02,10,02,8.50
2010,11,02,10,03,8.60
2010,11,02,10,04,8.60
2010,11,02,10,05,8.60
2010,11,02,10,06,8.70
2010,11,02,10,07,8.70
2010,11,02,10,08,8.70
2010,11,02,10,09,8.70
2010,11,02,10,10,8.80
2010,11,02,10,11,8.80
2010,11,02,10,12,8.80
2010,11,02,10,13,8.80
2010,11,02,10,14,8.80
2010,11,02,10,15,8.80
2010,11,02,10,16,8.80
2010,11,02,10,17,8.80
2010,11,02,10,18,8.80
2010,11,02,10,19,8.90
2010,11,02,10,20,8.90
2010,11,02,10,21,8.90
2010,11,02,10,22,9.00
2010,11,02,10,23,9.00
2010,11,02,10,24,9.00
2010,11,02,10,25,9.10
2010,11,02,10,26,9.10
2010,11,02,10,27,9.10
2010,11,02,10,28,9.10
2010,11,02,10,29,9.20
2010,11,02,10,30,9.10
2010,11,02,10,31,9.20
2010,11,02,10,32,9.10
2010,11,02,10,33,9.10
2010,11,02,10,34,9.10
2010,11,02,10,35,9.10
2010,11,02,10,36,9.10
2010,11,02,10,37,9.10
2010,11,02,10,38,9.10
2010,11,02,10,39,9.10
2010,11,02,10,40,9.20
2010,11,02,10,41,9.10
2010,11,02,10,42,9.10
2010,11,02,10,43,9.20
2010,11,02,10,44,9.20
2010,11,02,10,45,9.20
2010,11,02,10,46,9.20
2010,11,02,10,47,9.20
2010,11,02,10,48,9.20
2010,11,02,10,49,9.20
2010,11,02,10,50,9.20
2010,11,02,10,51,9.30
2010,11,02,10,52,9.30
2010,11,02,10,53,9.30
2010,11,02,10,54,9.30
2010,11,02,10,55,9.30
2010,11,02,10,56,9.30
2010,11,02,10,57,9.30
2010,11,02,10,58,9.30
2010,11,02,10,59,9.30
2010,11,02,11,00,9.40
2010,11,02,11,01,9.40
2010,11,02,11,02,9.40
2010,11,02,11,03,9.40
2010,11,02,11,04,9.40
2010,11,02,11,05,9.40
2010,11,02,11,06,9.50
2010,11,02,11,07,9.50
2010,11,02,11,08,9.50
2010,11,02,11,09,9.60
2010,11,02,11,10,9.60
2010,11,02,11,11,9.70
2010,11,02,11,12,9.70
2010,11,02,11,13,9.80
2010,11,02,11,14,9.80
2010,11,02,11,15,9.80
2010,11,02,11,16,9.90
2010,11,02,11,17,9.90
2010,11,02,11,18,10.00
2010,11,02,11,19,10.00
2010,11,02,11,20,10.10
2010,11,02,11,21,10.10
2010,11,02,11,22,10.20
2010,11,02,11,23,10.30
2010,11,02,11,24,10.30
2010,11,02,11,25,10.40
2010,11,02,11,26,10.40
2010,11,02,11,27,10.40
2010,11,02,11,28,10.50
2010,11,02,11,29,10.60
2010,11,02,11,30,10.60
2010,11,02,11,31,10.70
2010,11,02,11,32,10.70
2010,11,02,11,33,10.80
2010,11,02,11,34,10.80
2010,11,02,11,35,10.90
2010,11,02,11,36,10.90
2010,11,02,11,37,11.00
2010,11,02,11,38,11.10
2010,11,02,11,39,11.10
2010,11,02,11,40,11.10
2010,11,02,11,41,11.10
2010,11,02,11,42,11.20
2010,11,02,11,43,11.20
2010,11,02,11,44,11.20
2010,11,02,11,45,11.20
2010,11,02,11,46,11.20
2010,11,02,11,47,11.30
2010,11,02,11,48,11.30
2010,11,02,11,49,11.30
2010,11,02,11,50,11.40
2010,11,02,11,51,11.40
2010,11,02,11,52,11.40
2010,11,02,11,53,11.50
2010,11,02,11,54,11.50
2010,11,02,11,55,11.60
2010,11,02,11,56,11.60
2010,11,02,11,57,11.70
2010,11,02,11,58,11.70
2010,11,02,11,59,11.80
2010,11,02,12,00,11.90
2010,11,02,12,01,11.90
2010,11,02,12,02,11.90
2010,11,02,12,03,12.00
2010,11,02,12,04,12.00
2010,11,02,12,05,12.10
2010,11,02,12,06,12.10
2010,11,02,12,07,12.10
2010,11,02,12,08,12.10
2010,11,02,12,09,12.20
2010,11,02,12,10,12.20
2010,11,02,12,11,12.10
2010,11,02,12,12,12.10
2010,11,02,12,13,12.10
2010,11,02,12,14,12.00
2010,11,02,12,15,12.00
2010,11,02,12,16,11.90
2010,11,02,12,17,11.80
2010,11,02,12,18,11.80
2010,11,02,12,19,11.70
2010,11,02,12,20,11.60
2010,11,02,12,21,11.50
2010,11,02,12,22,11.40
2010,11,02,12,23,11.30
2010,11,02,12,24,11.30
2010,11,02,12,25,11.20
2010,11,02,12,26,11.10
2010,11,02,12,27,11.00
2010,11,02,12,28,10.90
2010,11,02,12,29,10.90
2010,11,02,12,30,10.80
2010,11,02,12,31,10.80
2010,11,02,12,32,10.80
2010,11,02,12,33,10.80
2010,11,02,12,34,10.80
2010,11,02,12,35,10.70
2010,11,02,12,36,10.70
2010,11,02,12,37,10.80
2010,11,02,12,38,10.80
2010,11,02,12,39,10.80
2010,11,02,12,40,10.80
2010,11,02,12,41,10.80
2010,11,02,12,42,10.80
2010,11,02,12,43,10.80
2010,11,02,12,44,10.80
2010,11,02,12,45,10.80
2010,11,02,12,46,10.80
2010,11,02,12,47,10.80
2010,11,02,12,48,10.80
2010,11,02,12,49,10.80
2010,11,02,12,50,10.80
2010,11,02,12,51,10.80
2010,11,02,12,52,10.90
2010,11,02,12,53,10.90
2010,11,02,12,54,10.90
2010,11,02,12,55,10.90
2010,11,02,12,56,10.90
2010,11,02,12,57,10.80
2010,11,02,12,58,10.80
2010,11,02,12,59,10.80
2010,11,02,13,00,10.80
2010,11,02,13,01,10.80
2010,11,02,13,02,10.80
2010,11,02,13,03,10.80
2010,11,02,13,04,10.80
2010,11,02,13,05,10.80
2010,11,02,13,06,10.80
2010,11,02,13,07,10.80
2010,11,02,13,08,10.80
2010,11,02,13,09,10.80
2010,11,02,13,10,10.80
2010,11,02,13,11,10.80
2010,11,02,13,12,10.80
2010,11,02,13,13,10.80
2010,11,02,13,14,10.80
2010,11,02,13,15,10.80
2010,11,02,13,16,10.80
2010,11,02,13,17,10.80
2010,11,02,13,18,10.90
2010,11,02,13,19,10.90
2010,11,02,13,20,11.00
2010,11,02,13,21,11.00
2010,11,02,13,22,11.10
2010,11,02,13,23,11.10
2010,11,02,13,24,11.20
2010,11,02,13,25,11.20
2010,11,02,13,26,11.30
2010,11,02,13,27,11.30
2010,11,02,13,28,11.30
2010,11,02,13,29,11.40
2010,11,02,13,30,11.40
2010,11,02,13,31,11.50
2010,11,02,13,32,11.50
2010,11,02,13,33,11.60
2010,11,02,13,34,11.60
2010,11,02,13,35,11.70
2010,11,02,13,36,11.70
2010,11,02,13,37,11.80
2010,11,02,13,38,11.90
2010,11,02,13,39,11.90
2010,11,02,13,40,12.00
2010,11,02,13,41,12.10
2010,11,02,13,42,12.10
2010,11,02,13,43,12.20
2010,11,02,13,44,12.20
2010,11,02,13,45,12.20
2010,11,02,13,46,12.30
2010,11,02,13,47,12.30
2010,11,02,13,48,12.30
2010,11,02,13,49,12.30
2010,11,02,13,50,12.30
2010,11,02,13,51,12.30
2010,11,02,13,52,12.30
2010,11,02,13,53,12.30
2010,11,02,13,54,12.30
2010,11,02,13,55,12.30
2010,11,02,13,56,12.30
2010,11,02,13,57,12.30
2010,11,02,13,58,12.30
2010,11,02,13,59,12.30
2010,11,02,14,00,12.30
2010,11,02,14,01,12.30
2010,11,02,14,02,12.40
2010,11,02,14,03,12.40
2010,11,02,14,04,12.40
2010,11,02,14,05,12.40
2010,11,02,14,06,12.40
2010,11,02,14,07,12.40
2010,11,02,14,08,12.50
2010,11,02,14,09,12.50
2010,11,02,14,10,12.60
2010,11,02,14,11,12.60
2010,11,02,14,12,12.60
2010,11,02,14,13,12.60
2010,11,02,14,14,12.70
2010,11,02,14,15,12.70
2010,11,02,14,16,12.70
2010,11,02,14,17,12.70
2010,11,02,14,18,12.80
2010,11,02,14,19,12.80
2010,11,02,14,20,12.80
2010,11,02,14,21,12.90
2010,11,02,14,22,12.90
2010,11,02,14,23,12.90
2010,11,02,14,24,12.90
2010,11,02,14,25,13.00
2010,11,02,14,26,13.00
2010,11,02,14,27,13.00
2010,11,02,14,28,13.10
2010,11,02,14,29,13.10
2010,11,02,14,30,13.10
2010,11,02,14,31,13.10
2010,11,02,14,32,13.10
2010,11,02,14,33,13.10
2010,11,02,14,34,13.20
2010,11,02,14,35,13.20
2010,11,02,14,36,13.20
2010,11,02,14,37,13.20
2010,11,02,14,38,13.20
2010,11,02,14,39,13.20
2010,11,02,14,40,13.20
2010,11,02,14,41,13.20
2010,11,02,14,42,13.30
2010,11,02,14,43,13.30
2010,11,02,14,44,13.30
2010,11,02,14,45,13.30
2010,11,02,14,46,13.30
2010,11,02,14,47,13.30
2010,11,02,14,48,13.30
2010,11,02,14,49,13.30
2010,11,02,14,50,13.30
2010,11,02,14,51,13.30
2010,11,02,14,52,13.30
2010,11,02,14,53,13.30
2010,11,02,14,54,13.30
2010,11,02,14,55,13.30
2010,11,02,14,56,13.30
2010,11,02,14,57,13.30
2010,11,02,14,58,13.30
2010,11,02,14,59,13.30
2010,11,02,15,00,13.30
2010,11,02,15,01,13.30
2010,11,02,15,02,13.30
2010,11,02,15,03,13.30
2010,11,02,15,04,13.30
2010,11,02,15,05,13.30
2010,11,02,15,06,13.30
2010,11,02,15,07,13.30
2010,11,02,15,08,13.30
2010,11,02,15,09,13.30
2010,11,02,15,10,13.30
2010,11,02,15,11,13.20
2010,11,02,15,12,13.20
2010,11,02,15,13,13.20
2010,11,02,15,14,13.20
2010,11,02,15,15,13.20
2010,11,02,15,16,13.20
2010,11,02,15,17,13.20
2010,11,02,15,18,13.20
2010,11,02,15,19,13.20
2010,11,02,15,20,13.20
2010,11,02,15,21,13.20
2010,11,02,15,22,13.20
2010,11,02,15,23,13.20
2010,11,02,15,24,13.20
2010,11,02,15,25,13.20
2010,11,02,15,26,13.20
2010,11,02,15,27,13.30
2010,11,02,15,28,13.30
2010,11,02,15,29,13.30
2010,11,02,15,30,13.30
2010,11,02,15,31,13.30
2010,11,02,15,32,13.30
2010,11,02,15,33,13.30
2010,11,02,15,34,13.30
2010,11,02,15,35,13.30
2010,11,02,15,36,13.30
2010,11,02,15,37,13.30
2010,11,02,15,38,13.30
2010,11,02,15,39,13.30
2010,11,02,15,40,13.30
2010,11,02,15,41,13.30
2010,11,02,15,42,13.30
2010,11,02,15,43,13.30
2010,11,02,15,44,13.30
2010,11,02,15,45,13.30
2010,11,02,15,46,13.30
2010,11,02,15,47,13.30
2010,11,02,15,48,13.30
2010,11,02,15,49,13.30
2010,11,02,15,50,13.30
2010,11,02,15,51,13.30
2010,11,02,15,52,13.30
2010,11,02,15,53,13.30
2010,11,02,15,54,13.30
2010,11,02,15,55,13.30
2010,11,02,15,56,13.30
2010,11,02,15,57,13.30
2010,11,02,15,58,13.30
2010,11,02,15,59,13.30
2010,11,02,16,00,13.30
2010,11,02,16,01,13.30
2010,11,02,16,02,13.30
2010,11,02,16,03,13.30
2010,11,02,16,04,13.30
2010,11,02,16,05,13.30
2010,11,02,16,06,13.30
2010,11,02,16,07,13.30
2010,11,02,16,08,13.30
2010,11,02,16,09,13.30
2010,11,02,16,10,13.30
2010,11,02,16,11,13.30
2010,11,02,16,12,13.30
2010,11,02,16,13,13.30
2010,11,02,16,14,13.30
2010,11,02,16,15,13.30
2010,11,02,16,16,13.30
2010,11,02,16,17,13.30
2010,11,02,16,18,13.20
2010,11,02,16,19,13.20
2010,11,02,16,20,13.20
2010,11,02,16,21,13.20
2010,11,02,16,22,13.20
2010,11,02,16,23,13.20
2010,11,02,16,24,13.20
2010,11,02,16,25,13.20
2010,11,02,16,26,13.20
2010,11,02,16,27,13.20
2010,11,02,16,28,13.20
2010,11,02,16,29,13.20
2010,11,02,16,30,13.10
2010,11,02,16,31,13.10
2010,11,02,16,32,13.10
2010,11,02,16,33,13.10
2010,11,02,16,34,13.10
2010,11,02,16,35,13.10
2010,11,02,16,36,13.10
2010,11,02,16,37,13.10
2010,11,02,16,38,13.10
2010,11,02,16,39,13.10
2010,11,02,16,40,13.10
2010,11,02,16,41,13.10
2010,11,02,16,42,13.10
2010,11,02,16,43,13.10
2010,11,02,16,44,13.10
2010,11,02,16,45,13.10
2010,11,02,16,46,13.10
2010,11,02,16,47,13.10
2010,11,02,16,48,13.20
2010,11,02,16,49,13.20
2010,11,02,16,50,13.20
2010,11,02,16,51,13.20
2010,11,02,16,52,13.20
2010,11,02,16,53,13.20
2010,11,02,16,54,13.20
2010,11,02,16,55,13.20
2010,11,02,16,56,13.20
2010,11,02,16,57,13.30
2010,11,02,16,58,13.30
2010,11,02,16,59,13.30
2010,11,02,17,00,13.30
2010,11,02,17,01,13.30
2010,11,02,17,02,13.30
2010,11,02,17,03,13.20
2010,11,02,17,04,13.20
2010,11,02,17,05,13.10
2010,11,02,17,06,13.10
2010,11,02,17,07,13.00
2010,11,02,17,08,12.90
2010,11,02,17,09,12.90
2010,11,02,17,10,12.80
2010,11,02,17,11,12.80
2010,11,02,17,12,12.70
2010,11,02,17,13,12.70
2010,11,02,17,14,12.60
2010,11,02,17,15,12.60
2010,11,02,17,16,12.50
2010,11,02,17,17,12.40
2010,11,02,17,18,12.30
2010,11,02,17,19,12.30
2010,11,02,17,20,12.20
2010,11,02,17,21,12.20
2010,11,02,17,22,12.10
2010,11,02,17,23,12.10
2010,11,02,17,24,12.00
2010,11,02,17,25,12.00
2010,11,02,17,26,11.90
2010,11,02,17,27,11.90
2010,11,02,17,28,11.80
2010,11,02,17,29,11.80
2010,11,02,17,30,11.80
2010,11,02,17,31,11.70
2010,11,02,17,32,11.70
2010,11,02,17,33,11.70
2010,11,02,17,34,11.60
2010,11,02,17,35,11.60
2010,11,02,17,36,11.50
2010,11,02,17,37,11.50
2010,11,02,17,38,11.40
2010,11,02,17,39,11.40
2010,11,02,17,40,11.40
2010,11,02,17,41,11.40
2010,11,02,17,42,11.30
2010,11,02,17,43,11.30
2010,11,02,17,44,11.30
2010,11,02,17,45,11.20
2010,11,02,17,46,11.20
2010,11,02,17,47,11.20
2010,11,02,17,48,11.20